date,time,SUV Intensity [MED/Hr],UV Index,Daily total [MED],Since Last [MED]
16/04/2023,00:00:39,0.000,0.0,0.0,0.0
16/04/2023,00:01:40,0.000,0.0,0.0,0.0
16/04/2023,00:02:39,0.001,0.0,0.0,0.0
16/04/2023,00:03:40,0.001,0.0,0.0,0.0
16/04/2023,00:04:40,0.000,0.0,0.0,0.0
16/04/2023,00:05:39,0.000,0.0,0.0,0.0
16/04/2023,00:06:39,0.000,0.0,0.0,0.0
16/04/2023,00:07:40,0.000,0.0,0.0,0.0
16/04/2023,00:08:40,-0.001,0.0,0.0,0.0
16/04/2023,00:09:40,0.000,0.0,0.0,0.0
16/04/2023,00:10:39,0.000,0.0,0.0,0.0
16/04/2023,00:11:39,0.000,0.0,0.0,0.0
16/04/2023,00:12:39,0.000,0.0,0.0,0.0
16/04/2023,00:13:39,0.000,0.0,0.0,0.0
16/04/2023,00:14:39,0.000,0.0,0.0,0.0
16/04/2023,00:15:39,-0.001,0.0,0.0,0.0
16/04/2023,00:16:39,0.000,0.0,0.0,0.0
16/04/2023,00:17:39,-0.000,0.0,0.0,0.0
16/04/2023,00:18:40,0.000,0.0,0.0,0.0
16/04/2023,00:19:39,-0.001,0.0,0.0,0.0
16/04/2023,00:20:40,0.001,0.0,0.0,0.0
16/04/2023,00:21:39,-0.001,0.0,0.0,0.0
16/04/2023,00:22:40,0.000,0.0,0.0,0.0
16/04/2023,00:23:39,0.000,0.0,0.0,0.0
16/04/2023,00:24:39,0.001,0.0,0.0,0.0
16/04/2023,00:25:40,-0.000,0.0,0.0,0.0
16/04/2023,00:26:40,-0.001,0.0,0.0,0.0
16/04/2023,00:27:39,0.000,0.0,0.0,0.0
16/04/2023,00:28:40,0.000,0.0,0.0,0.0
16/04/2023,00:29:40,0.000,0.0,0.0,0.0
16/04/2023,00:30:40,-0.001,0.0,0.0,0.0
16/04/2023,00:31:40,0.001,0.0,0.0,0.0
16/04/2023,00:32:39,0.001,0.0,0.0,0.0
16/04/2023,00:33:40,-0.000,0.0,0.0,0.0
16/04/2023,00:34:39,-0.000,0.0,0.0,0.0
16/04/2023,00:35:39,0.001,0.0,0.0,0.0
16/04/2023,00:36:40,-0.000,0.0,0.0,0.0
16/04/2023,00:37:39,-0.000,0.0,0.0,0.0
16/04/2023,00:38:39,0.001,0.0,0.0,0.0
16/04/2023,00:39:39,0.000,0.0,0.0,0.0
16/04/2023,00:40:39,-0.000,0.0,0.0,0.0
16/04/2023,00:41:39,0.000,0.0,0.0,0.0
16/04/2023,00:42:39,0.000,0.0,0.0,0.0
16/04/2023,00:43:40,0.000,0.0,0.0,0.0
16/04/2023,00:44:40,0.000,0.0,0.0,0.0
16/04/2023,00:45:40,-0.000,0.0,0.0,0.0
16/04/2023,00:46:39,0.000,0.0,0.0,0.0
16/04/2023,00:47:43,0.001,0.0,0.0,0.0
16/04/2023,00:48:40,0.000,0.0,0.0,0.0
16/04/2023,00:49:39,-0.000,0.0,0.0,0.0
16/04/2023,00:50:39,0.000,0.0,0.0,0.0
16/04/2023,00:51:40,-0.001,0.0,0.0,0.0
16/04/2023,00:52:40,0.000,0.0,0.0,0.0
16/04/2023,00:53:40,0.000,0.0,0.0,0.0
16/04/2023,00:54:40,0.000,0.0,0.0,0.0
16/04/2023,00:55:39,-0.001,0.0,0.0,0.0
16/04/2023,00:56:40,0.000,0.0,0.0,0.0
16/04/2023,00:57:40,-0.000,0.0,0.0,0.0
16/04/2023,00:58:39,0.000,0.0,0.0,0.0
16/04/2023,00:59:39,-0.000,0.0,0.0,0.0
16/04/2023,01:00:39,0.000,0.0,0.0,0.0
16/04/2023,01:01:39,-0.001,0.0,0.0,0.0
16/04/2023,01:02:39,0.000,0.0,0.0,0.0
16/04/2023,01:03:39,-0.000,0.0,0.0,0.0
16/04/2023,01:04:40,0.000,0.0,0.0,0.0
16/04/2023,01:05:39,0.000,0.0,0.0,0.0
16/04/2023,01:06:39,-0.001,0.0,0.0,0.0
16/04/2023,01:07:40,-0.001,0.0,0.0,0.0
16/04/2023,01:08:40,-0.001,0.0,0.0,0.0
16/04/2023,01:09:40,0.000,0.0,0.0,0.0
16/04/2023,01:10:40,0.000,0.0,0.0,0.0
16/04/2023,01:11:40,0.000,0.0,0.0,0.0
16/04/2023,01:12:39,0.000,0.0,0.0,0.0
16/04/2023,01:13:39,0.000,0.0,0.0,0.0
16/04/2023,01:14:40,0.000,0.0,0.0,0.0
16/04/2023,01:15:39,0.000,0.0,0.0,0.0
16/04/2023,01:16:40,-0.000,0.0,0.0,0.0
16/04/2023,01:17:39,0.000,0.0,0.0,0.0
16/04/2023,01:18:40,0.001,0.0,0.0,0.0
16/04/2023,01:19:39,-0.000,0.0,0.0,0.0
16/04/2023,01:20:39,-0.000,0.0,0.0,0.0
16/04/2023,01:21:39,0.000,0.0,0.0,0.0
16/04/2023,01:22:39,0.001,0.0,0.0,0.0
16/04/2023,01:23:40,0.000,0.0,0.0,0.0
16/04/2023,01:24:40,0.000,0.0,0.0,0.0
16/04/2023,01:25:39,0.001,0.0,0.0,0.0
16/04/2023,01:26:40,0.001,0.0,0.0,0.0
16/04/2023,01:27:40,-0.001,0.0,0.0,0.0
16/04/2023,01:28:39,0.000,0.0,0.0,0.0
16/04/2023,01:29:40,0.001,0.0,0.0,0.0
16/04/2023,01:30:40,-0.001,0.0,0.0,0.0
16/04/2023,01:31:39,-0.000,0.0,0.0,0.0
16/04/2023,01:32:40,0.001,0.0,0.0,0.0
16/04/2023,01:33:40,-0.001,0.0,0.0,0.0
16/04/2023,01:34:40,0.000,0.0,0.0,0.0
16/04/2023,01:35:40,0.000,0.0,0.0,0.0
16/04/2023,01:36:39,0.001,0.0,0.0,0.0
16/04/2023,01:37:39,0.000,0.0,0.0,0.0
16/04/2023,01:38:39,0.000,0.0,0.0,0.0
16/04/2023,01:39:40,0.000,0.0,0.0,0.0
16/04/2023,01:40:40,-0.000,0.0,0.0,0.0
16/04/2023,01:41:39,0.000,0.0,0.0,0.0
16/04/2023,01:42:39,0.000,0.0,0.0,0.0
16/04/2023,01:43:39,0.000,0.0,0.0,0.0
16/04/2023,01:44:39,0.000,0.0,0.0,0.0
16/04/2023,01:45:40,0.000,0.0,0.0,0.0
16/04/2023,01:46:40,0.000,0.0,0.0,0.0
16/04/2023,01:47:40,0.000,0.0,0.0,0.0
16/04/2023,01:48:39,0.000,0.0,0.0,0.0
16/04/2023,01:49:39,0.000,0.0,0.0,0.0
16/04/2023,01:50:39,0.000,0.0,0.0,0.0
16/04/2023,01:51:39,0.000,0.0,0.0,0.0
16/04/2023,01:52:39,0.000,0.0,0.0,0.0
16/04/2023,01:53:40,-0.000,0.0,0.0,0.0
16/04/2023,01:54:40,0.000,0.0,0.0,0.0
16/04/2023,01:55:40,0.000,0.0,0.0,0.0
16/04/2023,01:56:40,0.001,0.0,0.0,0.0
16/04/2023,01:57:39,-0.001,0.0,0.0,0.0
16/04/2023,01:58:39,0.000,0.0,0.0,0.0
16/04/2023,01:59:39,0.000,0.0,0.0,0.0
16/04/2023,02:00:39,0.001,0.0,0.0,0.0
16/04/2023,02:01:40,0.001,0.0,0.0,0.0
16/04/2023,02:02:39,-0.000,0.0,0.0,0.0
16/04/2023,02:03:40,0.000,0.0,0.0,0.0
16/04/2023,02:04:39,0.001,0.0,0.0,0.0
16/04/2023,02:05:40,-0.001,0.0,0.0,0.0
16/04/2023,02:06:40,0.000,0.0,0.0,0.0
16/04/2023,02:07:40,0.000,0.0,0.0,0.0
16/04/2023,02:08:40,-0.001,0.0,0.0,0.0
16/04/2023,02:09:40,-0.001,0.0,0.0,0.0
16/04/2023,02:10:39,0.000,0.0,0.0,0.0
16/04/2023,02:11:39,0.000,0.0,0.0,0.0
16/04/2023,02:12:39,0.000,0.0,0.0,0.0
16/04/2023,02:13:40,-0.001,0.0,0.0,0.0
16/04/2023,02:14:40,0.000,0.0,0.0,0.0
16/04/2023,02:15:39,0.000,0.0,0.0,0.0
16/04/2023,02:16:39,0.000,0.0,0.0,0.0
16/04/2023,02:17:39,-0.001,0.0,0.0,0.0
16/04/2023,02:18:39,-0.001,0.0,0.0,0.0
16/04/2023,02:19:39,0.000,0.0,0.0,0.0
16/04/2023,02:20:40,-0.001,0.0,0.0,0.0
16/04/2023,02:21:40,0.001,0.0,0.0,0.0
16/04/2023,02:22:40,0.000,0.0,0.0,0.0
16/04/2023,02:23:40,-0.000,0.0,0.0,0.0
16/04/2023,02:24:40,0.000,0.0,0.0,0.0
16/04/2023,02:25:40,-0.001,0.0,0.0,0.0
16/04/2023,02:26:40,0.001,0.0,0.0,0.0
16/04/2023,02:27:39,-0.001,0.0,0.0,0.0
16/04/2023,02:28:39,0.002,0.0,0.0,0.0
16/04/2023,02:29:39,-0.001,0.0,0.0,0.0
16/04/2023,02:30:40,-0.000,0.0,0.0,0.0
16/04/2023,02:31:40,-0.001,0.0,0.0,0.0
16/04/2023,02:32:39,0.000,0.0,0.0,0.0
16/04/2023,02:33:40,0.000,0.0,0.0,0.0
16/04/2023,02:34:40,0.000,0.0,0.0,0.0
16/04/2023,02:35:40,0.001,0.0,0.0,0.0
16/04/2023,02:36:40,-0.000,0.0,0.0,0.0
16/04/2023,02:37:40,0.000,0.0,0.0,0.0
16/04/2023,02:38:39,-0.000,0.0,0.0,0.0
16/04/2023,02:39:40,-0.001,0.0,0.0,0.0
16/04/2023,02:40:40,0.000,0.0,0.0,0.0
16/04/2023,02:41:39,-0.000,0.0,0.0,0.0
16/04/2023,02:42:39,0.000,0.0,0.0,0.0
16/04/2023,02:43:40,0.000,0.0,0.0,0.0
16/04/2023,02:44:40,0.001,0.0,0.0,0.0
16/04/2023,02:45:40,-0.001,0.0,0.0,0.0
16/04/2023,02:46:40,-0.000,0.0,0.0,0.0
16/04/2023,02:47:40,0.000,0.0,0.0,0.0
16/04/2023,02:48:40,0.000,0.0,0.0,0.0
16/04/2023,02:49:40,0.000,0.0,0.0,0.0
16/04/2023,02:50:39,0.001,0.0,0.0,0.0
16/04/2023,02:51:40,0.000,0.0,0.0,0.0
16/04/2023,02:52:39,0.000,0.0,0.0,0.0
16/04/2023,02:53:40,0.000,0.0,0.0,0.0
16/04/2023,02:54:40,0.001,0.0,0.0,0.0
16/04/2023,02:55:40,0.000,0.0,0.0,0.0
16/04/2023,02:56:39,-0.000,0.0,0.0,0.0
16/04/2023,02:57:40,0.000,0.0,0.0,0.0
16/04/2023,02:58:40,0.000,0.0,0.0,0.0
16/04/2023,02:59:40,-0.000,0.0,0.0,0.0
16/04/2023,03:00:40,0.000,0.0,0.0,0.0
16/04/2023,03:01:40,0.000,0.0,0.0,0.0
16/04/2023,03:02:39,0.000,0.0,0.0,0.0
16/04/2023,03:03:40,0.000,0.0,0.0,0.0
16/04/2023,03:04:40,-0.001,0.0,0.0,0.0
16/04/2023,03:05:40,0.000,0.0,0.0,0.0
16/04/2023,03:06:40,0.001,0.0,0.0,0.0
16/04/2023,03:07:40,0.000,0.0,0.0,0.0
16/04/2023,03:08:40,0.000,0.0,0.0,0.0
16/04/2023,03:09:40,0.001,0.0,0.0,0.0
16/04/2023,03:10:39,-0.001,0.0,0.0,0.0
16/04/2023,03:11:40,0.001,0.0,0.0,0.0
16/04/2023,03:12:40,0.001,0.0,0.0,0.0
16/04/2023,03:13:39,0.001,0.0,0.0,0.0
16/04/2023,03:14:39,-0.000,0.0,0.0,0.0
16/04/2023,03:15:40,0.000,0.0,0.0,0.0
16/04/2023,03:16:40,-0.000,0.0,0.0,0.0
16/04/2023,03:17:39,0.001,0.0,0.0,0.0
16/04/2023,03:18:40,0.000,0.0,0.0,0.0
16/04/2023,03:19:39,0.001,0.0,0.0,0.0
16/04/2023,03:20:40,-0.000,0.0,0.0,0.0
16/04/2023,03:21:40,0.001,0.0,0.0,0.0
16/04/2023,03:22:39,0.000,0.0,0.0,0.0
16/04/2023,03:23:40,-0.001,0.0,0.0,0.0
16/04/2023,03:24:40,0.000,0.0,0.0,0.0
16/04/2023,03:25:39,0.001,0.0,0.0,0.0
16/04/2023,03:26:40,-0.001,0.0,0.0,0.0
16/04/2023,03:27:40,0.000,0.0,0.0,0.0
16/04/2023,03:28:40,-0.000,0.0,0.0,0.0
16/04/2023,03:29:40,0.001,0.0,0.0,0.0
16/04/2023,03:30:40,0.000,0.0,0.0,0.0
16/04/2023,03:31:40,0.000,0.0,0.0,0.0
16/04/2023,03:32:40,-0.001,0.0,0.0,0.0
16/04/2023,03:33:40,0.000,0.0,0.0,0.0
16/04/2023,03:34:40,0.000,0.0,0.0,0.0
16/04/2023,03:35:40,0.001,0.0,0.0,0.0
16/04/2023,03:36:40,-0.001,0.0,0.0,0.0
16/04/2023,03:37:39,0.000,0.0,0.0,0.0
16/04/2023,03:38:40,0.000,0.0,0.0,0.0
16/04/2023,03:39:39,-0.001,0.0,0.0,0.0
16/04/2023,03:40:40,-0.001,0.0,0.0,0.0
16/04/2023,03:41:40,0.000,0.0,0.0,0.0
16/04/2023,03:42:40,0.000,0.0,0.0,0.0
16/04/2023,03:43:40,0.000,0.0,0.0,0.0
16/04/2023,03:44:39,-0.000,0.0,0.0,0.0
16/04/2023,03:45:40,-0.001,0.0,0.0,0.0
16/04/2023,03:46:40,-0.001,0.0,0.0,0.0
16/04/2023,03:47:40,-0.001,0.0,0.0,0.0
16/04/2023,03:48:40,0.001,0.0,0.0,0.0
16/04/2023,03:49:39,0.000,0.0,0.0,0.0
16/04/2023,03:50:40,0.000,0.0,0.0,0.0
16/04/2023,03:51:40,0.000,0.0,0.0,0.0
16/04/2023,03:52:40,0.000,0.0,0.0,0.0
16/04/2023,03:53:40,0.000,0.0,0.0,0.0
16/04/2023,03:54:40,0.000,0.0,0.0,0.0
16/04/2023,03:55:40,0.000,0.0,0.0,0.0
16/04/2023,03:56:39,0.000,0.0,0.0,0.0
16/04/2023,03:57:39,0.000,0.0,0.0,0.0
16/04/2023,03:58:40,-0.000,0.0,0.0,0.0
16/04/2023,03:59:40,-0.000,0.0,0.0,0.0
16/04/2023,04:00:40,0.000,0.0,0.0,0.0
16/04/2023,04:01:40,0.000,0.0,0.0,0.0
16/04/2023,04:02:40,-0.000,0.0,0.0,0.0
16/04/2023,04:03:40,-0.000,0.0,0.0,0.0
16/04/2023,04:04:39,0.001,0.0,0.0,0.0
16/04/2023,04:05:40,0.000,0.0,0.0,0.0
16/04/2023,04:06:40,0.000,0.0,0.0,0.0
16/04/2023,04:07:40,0.000,0.0,0.0,0.0
16/04/2023,04:08:40,0.000,0.0,0.0,0.0
16/04/2023,04:09:40,-0.000,0.0,0.0,0.0
16/04/2023,04:10:40,-0.000,0.0,0.0,0.0
16/04/2023,04:11:40,0.001,0.0,0.0,0.0
16/04/2023,04:12:40,0.001,0.0,0.0,0.0
16/04/2023,04:13:40,0.000,0.0,0.0,0.0
16/04/2023,04:14:39,0.000,0.0,0.0,0.0
16/04/2023,04:15:39,-0.000,0.0,0.0,0.0
16/04/2023,04:16:40,-0.001,0.0,0.0,0.0
16/04/2023,04:17:40,-0.000,0.0,0.0,0.0
16/04/2023,04:18:40,-0.000,0.0,0.0,0.0
16/04/2023,04:19:40,-0.001,0.0,0.0,0.0
16/04/2023,04:20:40,-0.000,0.0,0.0,0.0
16/04/2023,04:21:40,0.000,0.0,0.0,0.0
16/04/2023,04:22:40,0.000,0.0,0.0,0.0
16/04/2023,04:23:40,-0.001,0.0,0.0,0.0
16/04/2023,04:24:39,0.001,0.0,0.0,0.0
16/04/2023,04:25:40,-0.000,0.0,0.0,0.0
16/04/2023,04:26:40,0.001,0.0,0.0,0.0
16/04/2023,04:27:40,-0.001,0.0,0.0,0.0
16/04/2023,04:28:39,0.000,0.0,0.0,0.0
16/04/2023,04:29:40,0.001,0.0,0.0,0.0
16/04/2023,04:30:40,-0.000,0.0,0.0,0.0
16/04/2023,04:31:40,0.000,0.0,0.0,0.0
16/04/2023,04:32:40,-0.000,0.0,0.0,0.0
16/04/2023,04:33:40,0.000,0.0,0.0,0.0
16/04/2023,04:34:40,0.000,0.0,0.0,0.0
16/04/2023,04:35:40,0.001,0.0,0.0,0.0
16/04/2023,04:36:39,-0.001,0.0,0.0,0.0
16/04/2023,04:37:39,0.000,0.0,0.0,0.0
16/04/2023,04:38:40,0.000,0.0,0.0,0.0
16/04/2023,04:39:40,0.001,0.0,0.0,0.0
16/04/2023,04:40:40,-0.001,0.0,0.0,0.0
16/04/2023,04:41:40,0.000,0.0,0.0,0.0
16/04/2023,04:42:40,0.001,0.0,0.0,0.0
16/04/2023,04:43:40,-0.000,0.0,0.0,0.0
16/04/2023,04:44:40,-0.000,0.0,0.0,0.0
16/04/2023,04:45:40,0.001,0.0,0.0,0.0
16/04/2023,04:46:40,0.001,0.0,0.0,0.0
16/04/2023,04:47:40,0.000,0.0,0.0,0.0
16/04/2023,04:48:40,0.000,0.0,0.0,0.0
16/04/2023,04:49:40,0.000,0.0,0.0,0.0
16/04/2023,04:50:40,0.000,0.0,0.0,0.0
16/04/2023,04:51:40,0.000,0.0,0.0,0.0
16/04/2023,04:52:40,0.001,0.0,0.0,0.0
16/04/2023,04:53:40,0.000,0.0,0.0,0.0
16/04/2023,04:54:40,0.000,0.0,0.0,0.0
16/04/2023,04:55:40,0.000,0.0,0.0,0.0
16/04/2023,04:56:40,0.000,0.0,0.0,0.0
16/04/2023,04:57:40,0.000,0.0,0.0,0.0
16/04/2023,04:58:40,0.000,0.0,0.0,0.0
16/04/2023,04:59:40,0.000,0.0,0.0,0.0
16/04/2023,05:00:40,0.001,0.0,0.0,0.0
16/04/2023,05:01:40,0.000,0.0,0.0,0.0
16/04/2023,05:02:39,0.001,0.0,0.0,0.0
16/04/2023,05:03:40,0.001,0.0,0.0,0.0
16/04/2023,05:04:40,0.001,0.0,0.0,0.0
16/04/2023,05:05:40,0.001,0.0,0.0,0.0
16/04/2023,05:06:40,0.001,0.0,0.0,0.0
16/04/2023,05:07:40,0.001,0.0,0.0,0.0
16/04/2023,05:08:40,0.000,0.0,0.0,0.0
16/04/2023,05:09:40,0.001,0.0,0.0,0.0
16/04/2023,05:10:40,0.001,0.0,0.0,0.0
16/04/2023,05:11:40,0.001,0.0,0.0,0.0
16/04/2023,05:12:40,0.001,0.0,0.0,0.0
16/04/2023,05:13:40,0.002,0.0,0.0,0.0
16/04/2023,05:14:40,0.002,0.0,0.0,0.0
16/04/2023,05:15:40,0.002,0.0,0.0,0.0
16/04/2023,05:16:40,0.002,0.0,0.0,0.0
16/04/2023,05:17:39,0.002,0.0,0.0,0.0
16/04/2023,05:18:40,0.002,0.0,0.0,0.0
16/04/2023,05:19:40,0.002,0.0,0.0,0.0
16/04/2023,05:20:39,0.003,0.0,0.0,0.0
16/04/2023,05:21:40,0.003,0.0,0.0,0.0
16/04/2023,05:22:40,0.003,0.0,0.0,0.0
16/04/2023,05:23:40,0.003,0.0,0.0,0.0
16/04/2023,05:24:40,0.003,0.0,0.0,0.0
16/04/2023,05:25:40,0.004,0.0,0.0,0.0
16/04/2023,05:26:40,0.003,0.0,0.0,0.0
16/04/2023,05:27:40,0.004,0.0,0.0,0.0
16/04/2023,05:28:40,0.004,0.0,0.0,0.0
16/04/2023,05:29:40,0.004,0.0,0.0,0.0
16/04/2023,05:30:40,0.004,0.0,0.0,0.0
16/04/2023,05:31:40,0.005,0.0,0.0,0.0
16/04/2023,05:32:40,0.004,0.0,0.0,0.0
16/04/2023,05:33:40,0.004,0.0,0.0,0.0
16/04/2023,05:34:40,0.005,0.0,0.0,0.0
16/04/2023,05:35:40,0.005,0.0,0.0,0.0
16/04/2023,05:36:40,0.004,0.0,0.0,0.0
16/04/2023,05:37:40,0.006,0.0,0.0,0.0
16/04/2023,05:38:40,0.006,0.0,0.0,0.0
16/04/2023,05:39:40,0.006,0.0,0.0,0.0
16/04/2023,05:40:40,0.006,0.0,0.0,0.0
16/04/2023,05:41:40,0.007,0.0,0.0,0.0
16/04/2023,05:42:40,0.008,0.0,0.0,0.0
16/04/2023,05:43:40,0.007,0.0,0.0,0.0
16/04/2023,05:44:40,0.007,0.0,0.0,0.0
16/04/2023,05:45:40,0.008,0.0,0.001,0.001
16/04/2023,05:46:40,0.007,0.0,0.001,0.0
16/04/2023,05:47:40,0.010,0.0,0.001,0.0
16/04/2023,05:48:40,0.009,0.0,0.001,0.0
16/04/2023,05:49:40,0.009,0.0,0.001,0.0
16/04/2023,05:51:02,0.009,0.0,0.001,0.0
16/04/2023,05:52:40,0.009,0.0,0.002,0.001
16/04/2023,05:53:40,0.010,0.0,0.002,0.0
16/04/2023,05:54:40,0.010,0.0,0.002,0.0
16/04/2023,05:55:40,0.010,0.0,0.002,0.0
16/04/2023,05:56:40,0.010,0.0,0.002,0.0
16/04/2023,05:57:40,0.011,0.0,0.002,0.0
16/04/2023,05:58:40,0.011,0.0,0.003,0.001
16/04/2023,05:59:40,0.011,0.0,0.003,0.0
16/04/2023,06:00:41,0.010,0.0,0.003,0.0
16/04/2023,06:01:41,0.011,0.0,0.003,0.0
16/04/2023,06:02:40,0.012,0.0,0.003,0.0
16/04/2023,06:03:40,0.011,0.0,0.004,0.001
16/04/2023,06:04:40,0.014,0.0,0.004,0.0
16/04/2023,06:05:40,0.013,0.0,0.004,0.0
16/04/2023,06:06:40,0.014,0.0,0.004,0.0
16/04/2023,06:07:40,0.014,0.0,0.004,0.0
16/04/2023,06:08:40,0.014,0.0,0.005,0.001
16/04/2023,06:09:40,0.016,0.0,0.005,0.0
16/04/2023,06:10:40,0.015,0.0,0.005,0.0
16/04/2023,06:11:40,0.016,0.0,0.005,0.0
16/04/2023,06:12:39,0.017,0.0,0.006,0.001
16/04/2023,06:13:40,0.016,0.0,0.006,0.0
16/04/2023,06:14:40,0.018,0.0,0.006,0.0
16/04/2023,06:15:40,0.019,0.0,0.007,0.001
16/04/2023,06:16:41,0.019,0.0,0.007,0.0
16/04/2023,06:17:40,0.019,0.0,0.007,0.0
16/04/2023,06:18:39,0.021,0.0,0.008,0.001
16/04/2023,06:19:41,0.021,0.0,0.008,0.0
16/04/2023,06:20:40,0.022,0.0,0.008,0.0
16/04/2023,06:21:40,0.023,0.0,0.009,0.001
16/04/2023,06:22:40,0.023,0.0,0.009,0.0
16/04/2023,06:23:40,0.024,0.0,0.009,0.0
16/04/2023,06:24:40,0.024,0.0,0.01,0.001
16/04/2023,06:25:40,0.024,0.0,0.01,0.0
16/04/2023,06:26:41,0.026,0.0,0.011,0.001
16/04/2023,06:27:41,0.027,0.0,0.011,0.0
16/04/2023,06:28:40,0.027,0.0,0.012,0.001
16/04/2023,06:29:40,0.028,0.0,0.012,0.0
16/04/2023,06:30:40,0.030,0.0,0.013,0.001
16/04/2023,06:31:40,0.031,0.0,0.013,0.0
16/04/2023,06:32:40,0.032,0.0,0.014,0.001
16/04/2023,06:33:40,0.033,0.0,0.014,0.0
16/04/2023,06:34:40,0.035,0.0,0.015,0.001
16/04/2023,06:35:41,0.036,0.0,0.015,0.0
16/04/2023,06:36:40,0.037,0.0,0.016,0.001
16/04/2023,06:37:40,0.039,0.0,0.017,0.001
16/04/2023,06:38:40,0.041,0.0,0.017,0.0
16/04/2023,06:39:41,0.042,0.0,0.018,0.001
16/04/2023,06:40:40,0.042,0.0,0.019,0.001
16/04/2023,06:41:40,0.043,0.0,0.019,0.0
16/04/2023,06:42:40,0.043,0.0,0.02,0.001
16/04/2023,06:43:40,0.044,0.0,0.021,0.001
16/04/2023,06:44:40,0.044,0.0,0.021,0.0
16/04/2023,06:45:42,0.044,0.0,0.022,0.001
16/04/2023,06:46:40,0.044,0.0,0.023,0.001
16/04/2023,06:47:40,0.045,0.0,0.024,0.001
16/04/2023,06:48:40,0.047,0.0,0.024,0.0
16/04/2023,06:49:41,0.047,0.0,0.025,0.001
16/04/2023,06:50:41,0.048,0.0,0.026,0.001
16/04/2023,06:51:40,0.049,0.0,0.027,0.001
16/04/2023,06:52:40,0.050,0.0,0.028,0.001
16/04/2023,06:53:40,0.051,0.0,0.028,0.0
16/04/2023,06:54:40,0.051,0.0,0.029,0.001
16/04/2023,06:55:40,0.052,0.0,0.03,0.001
16/04/2023,06:56:40,0.054,0.0,0.031,0.001
16/04/2023,06:57:40,0.054,0.0,0.032,0.001
16/04/2023,06:58:40,0.056,0.0,0.033,0.001
16/04/2023,06:59:41,0.056,0.0,0.034,0.001
16/04/2023,07:00:40,0.057,0.0,0.035,0.001
16/04/2023,07:01:40,0.059,0.0,0.036,0.001
16/04/2023,07:02:40,0.061,0.0,0.037,0.001
16/04/2023,07:03:41,0.062,0.0,0.038,0.001
16/04/2023,07:04:40,0.064,0.0,0.039,0.001
16/04/2023,07:05:40,0.066,0.0,0.04,0.001
16/04/2023,07:06:40,0.067,0.0,0.041,0.001
16/04/2023,07:07:40,0.069,0.0,0.042,0.001
16/04/2023,07:08:40,0.069,0.0,0.043,0.001
16/04/2023,07:09:40,0.070,0.0,0.044,0.001
16/04/2023,07:10:40,0.072,0.0,0.046,0.002
16/04/2023,07:11:40,0.071,0.0,0.047,0.001
16/04/2023,07:12:45,0.075,0.0,0.048,0.001
16/04/2023,07:13:41,0.076,0.0,0.049,0.001
16/04/2023,07:14:40,0.076,0.0,0.05,0.001
16/04/2023,07:15:40,0.078,0.0,0.052,0.002
16/04/2023,07:16:40,0.080,0.0,0.053,0.001
16/04/2023,07:17:40,0.082,0.0,0.054,0.001
16/04/2023,07:18:40,0.086,0.0,0.056,0.002
16/04/2023,07:19:40,0.089,0.0,0.057,0.001
16/04/2023,07:20:40,0.092,0.0,0.059,0.002
16/04/2023,07:21:40,0.097,0.0,0.06,0.001
16/04/2023,07:22:41,0.101,0.0,0.062,0.002
16/04/2023,07:23:40,0.104,0.0,0.064,0.002
16/04/2023,07:24:40,0.111,0.0,0.065,0.001
16/04/2023,07:25:40,0.116,0.0,0.067,0.002
16/04/2023,07:26:39,0.123,0.0,0.069,0.002
16/04/2023,07:28:03,0.132,0.0,0.072,0.003
16/04/2023,07:29:41,0.140,0.0,0.076,0.004
16/04/2023,07:30:40,0.143,0.0,0.078,0.002
16/04/2023,07:31:41,0.145,0.0,0.081,0.003
16/04/2023,07:32:40,0.146,0.0,0.083,0.002
16/04/2023,07:33:40,0.148,0.0,0.086,0.003
16/04/2023,07:34:40,0.148,0.0,0.088,0.002
16/04/2023,07:35:40,0.151,0.0,0.091,0.003
16/04/2023,07:36:40,0.151,0.0,0.093,0.002
16/04/2023,07:37:41,0.153,0.0,0.096,0.003
16/04/2023,07:38:40,0.154,0.0,0.098,0.002
16/04/2023,07:39:40,0.155,0.0,0.101,0.003
16/04/2023,07:40:40,0.156,0.0,0.103,0.002
16/04/2023,07:41:40,0.158,0.0,0.106,0.003
16/04/2023,07:42:40,0.160,0.0,0.109,0.003
16/04/2023,07:43:40,0.162,0.0,0.111,0.002
16/04/2023,07:44:40,0.162,0.0,0.114,0.003
16/04/2023,07:45:40,0.162,0.0,0.117,0.003
16/04/2023,07:46:40,0.162,0.0,0.119,0.002
16/04/2023,07:47:40,0.159,0.0,0.122,0.003
16/04/2023,07:48:41,0.162,0.0,0.125,0.003
16/04/2023,07:49:41,0.164,0.0,0.127,0.002
16/04/2023,07:50:40,0.168,0.0,0.13,0.003
16/04/2023,07:51:40,0.172,0.0,0.133,0.003
16/04/2023,07:52:40,0.176,0.0,0.136,0.003
16/04/2023,07:53:41,0.179,0.0,0.139,0.003
16/04/2023,07:54:41,0.180,0.0,0.142,0.003
16/04/2023,07:55:41,0.181,0.0,0.145,0.003
16/04/2023,07:56:40,0.185,0.0,0.148,0.003
16/04/2023,07:57:40,0.188,0.0,0.151,0.003
16/04/2023,07:58:40,0.196,0.0,0.154,0.003
16/04/2023,07:59:40,0.200,0.0,0.158,0.004
16/04/2023,08:00:42,0.206,0.0,0.161,0.003
16/04/2023,08:01:40,0.208,0.0,0.164,0.003
16/04/2023,08:02:40,0.210,0.0,0.168,0.004
16/04/2023,08:03:41,0.210,0.0,0.171,0.003
16/04/2023,08:04:41,0.213,0.0,0.175,0.004
16/04/2023,08:05:40,0.214,0.0,0.179,0.004
16/04/2023,08:06:40,0.214,0.0,0.182,0.003
16/04/2023,08:07:40,0.214,0.0,0.186,0.004
16/04/2023,08:08:40,0.212,0.0,0.189,0.003
16/04/2023,08:09:40,0.213,0.0,0.193,0.004
16/04/2023,08:10:41,0.213,0.0,0.196,0.003
16/04/2023,08:11:41,0.212,0.0,0.2,0.004
16/04/2023,08:12:40,0.211,0.0,0.203,0.003
16/04/2023,08:13:40,0.210,0.0,0.207,0.004
16/04/2023,08:14:40,0.211,0.0,0.21,0.003
16/04/2023,08:15:41,0.214,0.0,0.214,0.004
16/04/2023,08:16:40,0.219,1.0,0.218,0.004
16/04/2023,08:17:40,0.224,1.0,0.221,0.003
16/04/2023,08:18:40,0.228,1.0,0.225,0.004
16/04/2023,08:19:40,0.230,1.0,0.229,0.004
16/04/2023,08:20:41,0.232,1.0,0.233,0.004
16/04/2023,08:21:40,0.232,1.0,0.237,0.004
16/04/2023,08:22:40,0.232,1.0,0.24,0.003
16/04/2023,08:23:40,0.234,1.0,0.244,0.004
16/04/2023,08:24:40,0.232,1.0,0.248,0.004
16/04/2023,08:25:40,0.230,1.0,0.252,0.004
16/04/2023,08:26:40,0.233,1.0,0.256,0.004
16/04/2023,08:27:40,0.238,1.0,0.26,0.004
16/04/2023,08:28:40,0.243,1.0,0.264,0.004
16/04/2023,08:29:40,0.246,1.0,0.268,0.004
16/04/2023,08:30:40,0.248,1.0,0.272,0.004
16/04/2023,08:31:40,0.254,1.0,0.276,0.004
16/04/2023,08:32:40,0.261,1.0,0.28,0.004
16/04/2023,08:33:40,0.267,1.0,0.285,0.005
16/04/2023,08:34:40,0.270,1.0,0.289,0.004
16/04/2023,08:35:41,0.274,1.0,0.294,0.005
16/04/2023,08:36:41,0.281,1.0,0.298,0.004
16/04/2023,08:37:41,0.290,1.0,0.303,0.005
16/04/2023,08:38:41,0.299,1.0,0.308,0.005
16/04/2023,08:39:41,0.306,1.0,0.313,0.005
16/04/2023,08:40:40,0.309,1.0,0.318,0.005
16/04/2023,08:41:40,0.309,1.0,0.324,0.006
16/04/2023,08:42:40,0.304,1.0,0.329,0.005
16/04/2023,08:43:41,0.297,1.0,0.334,0.005
16/04/2023,08:44:41,0.287,1.0,0.339,0.005
16/04/2023,08:45:40,0.275,1.0,0.343,0.004
16/04/2023,08:46:40,0.266,1.0,0.348,0.005
16/04/2023,08:47:40,0.263,1.0,0.352,0.004
16/04/2023,08:48:41,0.266,1.0,0.357,0.005
16/04/2023,08:49:40,0.268,1.0,0.361,0.004
16/04/2023,08:50:40,0.271,1.0,0.365,0.004
16/04/2023,08:51:40,0.272,1.0,0.37,0.005
16/04/2023,08:52:40,0.271,1.0,0.374,0.004
16/04/2023,08:53:41,0.268,1.0,0.379,0.005
16/04/2023,08:54:40,0.268,1.0,0.383,0.004
16/04/2023,08:55:40,0.275,1.0,0.388,0.005
16/04/2023,08:56:40,0.284,1.0,0.393,0.005
16/04/2023,08:57:40,0.296,1.0,0.397,0.004
16/04/2023,08:58:41,0.312,1.0,0.402,0.005
16/04/2023,08:59:41,0.329,1.0,0.408,0.006
16/04/2023,09:00:41,0.347,1.0,0.413,0.005
16/04/2023,09:01:41,0.363,1.0,0.419,0.006
16/04/2023,09:02:40,0.370,1.0,0.426,0.007
16/04/2023,09:03:40,0.376,1.0,0.432,0.006
16/04/2023,09:04:41,0.381,1.0,0.438,0.006
16/04/2023,09:05:41,0.385,1.0,0.444,0.006
16/04/2023,09:06:41,0.395,1.0,0.451,0.007
16/04/2023,09:07:40,0.408,1.0,0.458,0.007
16/04/2023,09:08:40,0.423,1.0,0.465,0.007
16/04/2023,09:09:40,0.440,1.0,0.472,0.007
16/04/2023,09:10:41,0.450,1.0,0.479,0.007
16/04/2023,09:11:40,0.449,1.0,0.487,0.008
16/04/2023,09:12:40,0.444,1.0,0.494,0.007
16/04/2023,09:13:40,0.442,1.0,0.501,0.007
16/04/2023,09:14:41,0.444,1.0,0.509,0.008
16/04/2023,09:15:41,0.449,1.0,0.516,0.007
16/04/2023,09:16:40,0.456,1.0,0.524,0.008
16/04/2023,09:17:40,0.467,1.0,0.532,0.008
16/04/2023,09:18:41,0.471,1.0,0.539,0.007
16/04/2023,09:19:40,0.470,1.0,0.547,0.008
16/04/2023,09:20:41,0.471,1.0,0.555,0.008
16/04/2023,09:21:41,0.473,1.0,0.563,0.008
16/04/2023,09:22:41,0.476,1.0,0.571,0.008
16/04/2023,09:23:40,0.482,1.0,0.579,0.008
16/04/2023,09:24:41,0.487,1.0,0.587,0.008
16/04/2023,09:25:41,0.492,1.0,0.595,0.008
16/04/2023,09:26:40,0.501,1.0,0.603,0.008
16/04/2023,09:27:41,0.512,1.0,0.612,0.009
16/04/2023,09:28:40,0.524,1.0,0.62,0.008
16/04/2023,09:29:40,0.525,1.0,0.629,0.009
16/04/2023,09:30:40,0.519,1.0,0.638,0.009
16/04/2023,09:31:40,0.508,1.0,0.646,0.008
16/04/2023,09:32:41,0.499,1.0,0.655,0.009
16/04/2023,09:33:40,0.495,1.0,0.663,0.008
16/04/2023,09:34:41,0.493,1.0,0.671,0.008
16/04/2023,09:35:40,0.491,1.0,0.679,0.008
16/04/2023,09:36:40,0.482,1.0,0.688,0.009
16/04/2023,09:37:40,0.472,1.0,0.696,0.008
16/04/2023,09:38:40,0.464,1.0,0.703,0.007
16/04/2023,09:39:40,0.460,1.0,0.711,0.008
16/04/2023,09:40:40,0.463,1.0,0.719,0.008
16/04/2023,09:41:40,0.470,1.0,0.727,0.008
16/04/2023,09:42:41,0.481,1.0,0.734,0.007
16/04/2023,09:43:41,0.493,1.0,0.743,0.009
16/04/2023,09:44:40,0.508,1.0,0.751,0.008
16/04/2023,09:45:40,0.529,1.0,0.76,0.009
16/04/2023,09:46:40,0.548,1.0,0.769,0.009
16/04/2023,09:47:41,0.565,1.0,0.778,0.009
16/04/2023,09:48:41,0.582,1.0,0.787,0.009
16/04/2023,09:49:40,0.594,1.0,0.797,0.01
16/04/2023,09:50:40,0.607,1.0,0.807,0.01
16/04/2023,09:51:41,0.616,1.0,0.817,0.01
16/04/2023,09:52:41,0.623,1.0,0.828,0.011
16/04/2023,09:53:40,0.631,1.0,0.838,0.01
16/04/2023,09:54:40,0.636,1.0,0.849,0.011
16/04/2023,09:55:40,0.646,1.0,0.859,0.01
16/04/2023,09:56:40,0.653,2.0,0.87,0.011
16/04/2023,09:57:40,0.658,2.0,0.881,0.011
16/04/2023,09:58:40,0.660,2.0,0.892,0.011
16/04/2023,09:59:41,0.649,1.0,0.903,0.011
16/04/2023,10:00:41,0.636,1.0,0.914,0.011
16/04/2023,10:01:41,0.622,1.0,0.924,0.01
16/04/2023,10:02:40,0.607,1.0,0.934,0.01
16/04/2023,10:03:40,0.594,1.0,0.944,0.01